Wind_Speed
37 35 33 32 32 32 32 32 32 32 32 32 32 32 31 31 31 31 30 30 30 31 32 33 34 34 35 36 37 37 37 38 38 38 38 38 38 40 40 41 42 44 46 47 46 45 45 45 45 45 45 45 46 46 45 46 45 43 42 43 43 43 42 42 42 41 41 42 42 42 42 42 42 42 42 43 44 45 46 46 46 45 45 45 45
38 37 35 33 33 32 32 32 32 33 33 33 33 32 32 31 31 31 31 31 31 31 32 33 33 34 36 37 38 38 39 40 40 41 41 40 39 39 40 41 42 44 45 46 47 47 47 47 46 46 46 46 47 48 47 47 47 45 45 45 45 46 46 45 44 43 44 44 45 45 44 43 43 42 43 43 44 46 47 48 48 47 46 46 46
36 37 37 36 34 34 34 33 33 34 34 34 34 34 33 31 30 30 30 30 30 31 32 32 33 34 35 37 38 40 40 41 42 42 43 43 42 41 40 40 41 43 44 45 46 48 48 49 49 48 47 47 48 49 49 49 49 48 47 47 47 48 48 47 45 45 47 48 49 48 47 47 46 44 43 44 45 47 48 49 49 48 47 47 47
34 33 34 35 35 34 34 33 34 34 34 35 35 35 33 31 31 31 30 31 31 32 32 33 33 34 34 35 37 38 40 41 41 42 43 44 44 43 42 42 41 42 43 44 45 47 48 48 49 49 49 48 49 50 50 50 51 51 50 49 49 50 50 49 48 48 49 50 51 50 50 50 48 46 46 46 46 48 48 49 49 48 48 48 48
31 29 30 32 33 34 34 33 33 33 34 34 34 34 34 33 33 33 33 33 33 33 34 34 35 35 36 36 36 37 38 39 40 41 42 43 44 45 45 45 44 43 42 43 43 45 46 47 48 49 48 48 48 49 50 50 51 51 51 50 51 51 52 52 51 51 51 51 53 53 52 51 49 48 49 49 48 49 49 50 50 49 49 50 49
27 27 28 29 30 32 33 33 33 33 33 34 36 36 38 39 38 37 36 36 35 35 35 36 36 37 37 38 38 38 38 39 40 40 41 42 43 44 45 46 47 46 45 45 44 44 45 46 47 47 47 47 47 48 49 50 50 51 51 51 51 51 52 53 53 52 53 54 55 55 55 53 52 51 52 51 51 51 51 52 51 51 51 50 50
26 26 24 26 29 31 31 31 31 33 34 36 39 41 43 44 44 43 41 41 41 41 41 41 41 41 41 41 42 42 41 41 42 42 42 43 43 44 45 46 47 47 47 47 47 47 47 47 47 48 48 47 47 48 49 50 50 51 51 52 52 52 53 53 53 53 54 56 56 57 57 57 56 55 54 53 53 52 52 53 53 53 53 53 52
25 25 24 28 32 33 32 32 34 34 36 39 42 45 47 48 49 49 47 47 47 47 47 47 47 47 47 47 47 47 47 46 46 46 46 46 46 47 47 48 48 48 48 49 49 50 50 50 50 50 50 50 49 49 50 51 51 52 52 52 52 53 53 53 54 54 54 55 56 58 58 59 59 58 57 56 55 54 53 53 54 55 56 56 54
25 26 28 30 34 36 36 39 42 40 39 42 43 46 48 50 52 53 52 52 51 51 51 51 52 52 52 52 51 51 51 51 51 51 50 50 50 50 50 51 52 52 52 52 52 52 53 53 53 54 54 54 53 52 52 52 53 53 53 53 53 54 54 55 55 55 54 55 56 58 58 59 60 60 59 58 58 56 54 54 55 56 57 57 57
29 30 31 33 36 40 41 44 49 49 45 45 46 48 50 52 54 55 56 56 55 55 55 56 56 56 57 56 56 55 55 54 54 54 53 53 54 54 54 55 55 56 56 56 56 56 56 56 56 57 57 58 58 57 57 56 56 55 55 55 55 55 56 56 56 56 55 55 56 57 58 58 59 60 60 60 60 59 57 56 56 57 58 58 58
37 36 37 38 40 45 49 51 54 57 55 52 51 51 53 55 56 57 58 59 60 60 60 60 61 61 61 61 60 60 60 58 56 55 55 55 55 56 57 58 59 59 59 59 59 59 59 59 59 59 60 61 61 61 61 61 60 59 59 58 58 57 58 58 58 58 57 56 57 58 58 59 59 59 60 61 61 60 59 58 58 59 59 60 59
47 45 45 47 48 51 55 58 59 59 59 58 57 56 58 60 60 60 61 62 63 64 65 65 65 64 64 63 63 63 63 62 60 58 57 56 56 57 57 59 60 61 61 62 62 62 62 61 61 62 63 64 64 64 64 65 64 63 63 62 61 60 60 60 60 60 60 59 58 59 60 61 61 60 61 61 61 61 61 60 60 60 60 60 60
54 52 53 54 56 58 60 62 62 61 61 61 60 59 61 63 64 64 64 64 64 65 67 68 68 68 67 66 65 64 63 63 62 60 59 58 58 58 58 59 60 61 63 64 64 64 63 63 63 64 65 66 67 67 67 68 67 67 67 66 65 64 64 63 63 63 62 62 61 60 61 62 62 62 62 63 62 63 62 61 61 61 60 61 61
57 57 57 57 59 61 63 64 64 65 65 64 63 63 64 65 65 65 65 64 64 63 64 65 67 68 69 69 68 66 65 63 62 62 61 61 60 60 60 60 61 62 63 65 65 65 64 64 64 65 66 67 68 69 70 70 70 70 70 69 69 68 68 67 67 66 66 65 64 63 62 62 62 63 64 64 64 64 64 63 63 63 62 61 62
60 59 58 59 60 62 63 65 65 66 67 66 66 65 65 65 65 64 64 64 63 63 62 62 63 64 66 67 68 68 68 66 65 64 63 62 62 62 62 62 63 63 64 65 66 66 65 65 65 65 65 67 68 69 71 72 73 73 73 72 72 71 71 71 70 70 70 69 68 67 65 64 63 64 65 65 65 65 65 65 64 64 64 63 62
61 61 60 61 62 63 64 64 65 65 66 66 66 65 64 63 63 62 62 62 62 63 62 62 62 62 63 63 65 67 68 69 69 69 68 66 65 64 63 63 64 65 65 66 68 68 68 68 67 67 67 67 68 69 70 72 73 74 75 75 74 74 74 73 73 73 72 72 72 71 70 68 66 65 65 66 66 67 67 66 65 66 66 66 65
59 60 61 62 62 63 63 63 64 64 65 66 66 66 65 64 64 63 63 62 61 61 62 63 63 63 62 62 63 64 66 68 69 70 71 70 70 69 68 68 67 67 68 68 69 71 71 71 71 70 70 69 69 69 70 71 73 74 75 76 76 76 76 76 76 75 74 74 74 73 73 72 70 69 68 67 67 67 68 67 66 66 67 68 68
59 59 60 61 61 62 62 63 64 65 66 67 68 67 67 66 65 64 63 62 60 60 61 63 64 64 64 64 64 65 66 67 68 69 70 71 72 73 74 74 74 73 73 72 72 73 74 74 75 75 74 73 73 73 72 72 73 74 76 77 78 78 78 77 77 77 76 76 76 75 75 75 74 73 72 70 68 68 69 69 68 68 69 70 70
61 61 61 61 61 61 62 63 64 66 67 69 70 70 68 67 65 65 64 63 63 63 64 65 66 67 68 69 69 69 70 70 70 70 71 71 72 73 75 76 77 78 78 77 76 77 77 77 78 78 79 78 78 77 77 76 76 75 76 77 78 79 79 79 79 78 78 78 78 77 77 77 77 77 76 74 72 71 70 70 70 70 70 70 71
62 63 63 62 63 64 65 66 67 68 70 71 71 71 70 69 68 68 68 68 67 67 68 69 71 72 74 75 76 76 76 75 75 74 73 73 73 74 75 77 79 80 81 81 80 80 81 80 80 80 80 81 81 80 80 80 80 80 80 79 79 79 80 80 81 81 80 80 79 79 79 79 80 80 79 78 77 75 73 73 72 72 71 72 72
64 64 64 64 66 67 67 67 67 68 70 70 70 71 71 72 73 74 75 75 73 72 72 72 74 76 77 79 80 80 81 80 79 77 74 73 74 75 76 78 80 81 83 84 84 84 84 84 84 84 84 84 83 83 82 82 82 83 83 83 82 81 81 81 81 82 82 82 82 81 80 80 81 81 80 80 80 78 77 75 74 74 73 72 73
65 65 65 66 68 69 70 70 70 71 72 73 73 74 75 77 79 80 81 80 78 76 76 76 78 79 80 82 83 84 84 83 81 78 76 74 74 75 76 78 80 82 84 85 87 87 87 87 88 89 90 91 90 88 86 85 85 85 84 84 84 83 82 82 81 81 81 82 82 82 82 81 82 81 81 81 81 81 80 78 76 76 75 74 74
68 68 70 72 74 75 76 77 77 78 78 78 78 78 79 80 81 81 81 80 79 79 79 80 82 83 83 83 83 83 83 83 82 80 79 77 76 75 75 76 79 82 84 86 88 89 88 88 88 88 90 92 94 94 92 90 89 87 85 85 86 85 84 83 82 80 80 80 81 81 81 81 82 81 80 80 80 81 81 80 79 77 76 75 75
73 75 77 79 80 81 82 82 82 82 81 81 80 79 78 78 78 79 80 81 81 82 82 82 83 83 83 82 81 80 80 80 81 81 81 80 79 77 76 76 77 79 82 84 87 88 88 89 89 89 88 89 91 93 96 96 93 90 88 86 87 88 88 86 84 83 81 81 80 79 79 80 81 81 80 79 79 79 80 80 79 78 77 75 75
78 80 82 82 83 84 84 84 83 82 81 81 81 80 80 80 80 82 84 86 87 87 86 84 83 82 81 80 79 79 79 79 80 81 81 82 82 82 82 81 81 81 82 83 84 86 87 88 90 91 92 91 90 90 92 93 93 92 91 88 87 89 90 90 89 87 85 84 82 80 79 79 80 80 79 79 79 78 78 79 79 79 78 77 76
81 82 82 82 83 83 83 83 84 84 85 86 87 87 88 89 89 90 91 92 93 93 92 90 88 87 86 85 84 84 84 84 84 85 86 87 88 88 88 89 89 89 89 88 89 89 89 90 91 93 95 95 95 94 92 92 92 92 92 91 90 91 92 92 92 91 90 87 85 82 80 79 79 78 77 78 79 79 78 78 77 78 79 79 78
80 80 81 81 82 82 82 83 85 86 88 89 90 92 93 94 94 95 95 95 95 95 96 95 95 94 93 93 94 94 95 95 94 94 94 94 95 95 95 95 95 95 95 95 95 95 96 96 98 99 100 100 100 99 97 95 94 93 93 92 92 94 95 93 91 91 91 90 88 85 83 81 79 78 77 77 78 78 78 77 77 77 79 80 80
80 81 82 83 83 84 85 86 88 89 90 92 92 93 95 95 96 96 96 96 96 96 96 96 96 97 97 98 99 100 100 99 98 97 96 96 97 97 98 98 98 98 98 98 98 98 98 98 99 100 101 102 102 101 100 99 97 96 95 94 94 96 98 96 93 90 89 90 89 88 86 84 81 80 79 79 79 78 78 78 77 78 80 81 81
82 83 84 86 87 88 89 90 92 93 94 95 96 96 97 97 98 98 98 98 98 97 97 97 97 97 98 99 99 100 100 99 98 97 96 95 94 94 95 96 97 97 98 98 98 97 97 97 97 97 98 99 99 100 100 100 99 98 97 97 97 97 98 99 98 95 92 90 89 88 88 87 85 83 80 80 80 80 80 79 78 79 81 82 82
86 87 88 89 90 92 93 93 94 95 96 97 97 98 98 98 98 98 97 97 97 97 97 97 97 98 99 100 100 101 101 101 101 100 99 98 96 95 94 94 94 95 96 97 97 97 96 96 96 96 96 97 97 98 98 99 98 98 97 98 98 98 99 99 99 98 96 94 92 90 89 88 87 86 85 83 81 81 81 81 80 81 83 83 83
91 92 92 93 93 94 94 95 95 96 96 97 97 98 98 98 97 97 97 96 96 96 96 97 97 98 99 100 101 102 102 102 102 102 102 102 101 100 99 98 97 97 97 97 97 97 97 97 97 96 96 96 96 97 97 98 98 98 97 97 97 98 99 100 100 99 97 96 95 94 92 90 88 87 87 87 85 83 81 81 82 84 85 84 84
93 94 94 94 94 93 93 93 93 93 93 93 93 94 94 94 94 94 94 93 93 94 94 95 95 96 97 98 99 100 100 101 101 101 102 102 103 103 103 103 102 102 101 101 100 100 100 100 100 99 99 98 98 97 98 98 99 99 99 98 98 97 98 99 101 100 99 97 95 94 94 93 91 89 87 87 87 87 85 84 83 84 85 86 85
91 91 90 90 90 89 88 87 86 85 84 84 85 86 86 86 87 87 87 87 87 87 88 89 90 91 92 93 94 95 96 97 97 98 99 100 101 102 103 104 104 105 105 105 105 105 104 104 104 104 104 103 102 101 100 101 101 101 102 102 101 100 99 99 99 101 101 99 97 95 93 92 92 92 91 88 86 86 88 89 88 86 84 85 86
85 83 83 83 82 80 78 77 76 75 75 75 76 76 77 77 78 79 80 81 82 83 84 84 85 87 88 89 90 91 92 93 94 95 97 98 99 100 101 102 103 105 106 106 107 107 107 107 107 107 108 107 106 105 105 105 105 105 105 106 106 105 103 101 100 100 101 102 101 99 96 93 91 91 92 93 90 87 86 88 91 90 87 84 84
76 74 73 72 71 70 68 67 67 68 68 68 69 70 71 72 73 75 76 77 79 80 81 82 83 84 85 86 87 89 90 91 92 94 95 96 97 98 99 100 101 102 103 104 105 106 107 108 108 109 109 109 109 108 108 109 109 108 109 109 110 109 108 106 104 102 101 102 102 102 101 97 94 91 90 92 94 94 91 87 88 90 91 89 85
66 64 63 62 61 62 62 62 63 63 64 65 66 67 68 69 70 72 73 74 76 77 78 79 80 81 82 83 84 85 87 88 89 91 92 94 95 96 97 98 99 99 100 100 101 102 103 105 106 107 109 109 109 109 109 109 110 110 110 110 111 112 111 111 109 107 105 104 103 104 104 102 100 96 92 90 92 96 97 94 89 88 90 92 91
57 56 56 56 57 58 60 61 61 62 63 64 65 65 66 67 68 69 70 71 72 73 74 75 76 77 78 79 81 82 84 85 86 87 89 90 91 92 93 95 96 97 96 96 96 97 98 99 100 102 104 105 106 106 106 107 108 109 109 110 110 111 111 112 112 111 110 109 107 105 105 105 104 102 98 94 92 94 96 98 96 92 89 90 92
52 52 53 54 55 57 58 59 60 61 62 63 63 64 64 65 66 67 68 69 70 71 72 73 74 75 77 78 80 81 82 83 84 85 87 87 88 89 90 91 92 93 93 93 93 93 93 93 94 95 97 99 100 100 100 101 102 104 105 106 108 108 109 110 111 112 112 112 111 109 107 106 106 106 104 101 98 96 95 96 97 97 95 92 89
51 51 52 53 55 56 57 59 60 61 61 62 63 63 64 65 66 67 68 69 70 71 71 73 74 75 77 78 80 81 83 84 85 85 86 87 87 88 89 89 90 91 91 91 91 92 91 90 91 92 92 94 95 95 95 96 97 98 99 101 103 105 106 106 106 107 109 111 112 112 111 110 108 107 108 107 105 102 99 96 96 97 98 96 91
51 51 52 53 54 55 57 58 59 60 61 62 62 63 64 65 66 67 68 69 70 71 72 73 74 76 77 79 81 82 83 85 85 86 86 87 87 88 88 89 89 90 90 90 90 90 91 89 89 90 90 91 92 92 92 93 94 96 96 98 99 101 102 102 101 100 102 105 108 110 112 113 111 110 109 110 110 109 106 101 98 97 97 96 95
51 50 51 51 53 55 56 57 59 60 61 62 63 64 65 66 67 68 69 70 71 72 73 74 75 76 78 79 81 83 84 84 85 86 86 85 86 86 87 86 87 87 87 87 87 88 88 88 87 87 88 88 89 90 90 90 92 94 95 96 98 99 98 98 98 97 96 97 99 103 106 110 112 113 112 112 112 112 111 108 104 100 97 96 98
51 50 50 51 53 56 57 59 60 62 63 64 65 66 66 67 68 69 70 70 71 72 73 74 75 76 78 79 81 82 83 83 83 84 83 82 82 83 82 82 83 83 83 83 82 82 82 82 81 81 82 82 83 84 86 87 89 91 93 95 98 98 98 97 97 96 94 92 91 94 97 101 106 110 113 114 114 114 114 113 110 106 101 98 100
52 52 53 54 56 58 59 61 62 63 64 65 65 66 66 67 68 68 69 70 71 72 72 73 74 76 77 78 79 79 80 80 80 80 80 78 76 75 74 74 74 75 74 73 72 71 71 71 69 69 69 70 71 72 74 76 79 82 86 90 94 96 97 98 98 97 94 91 88 87 89 92 96 102 107 111 114 114 115 115 114 111 106 103 102
54 55 56 57 58 60 61 62 63 63 64 65 65 65 65 66 66 67 68 69 69 70 71 72 74 75 75 76 76 76 76 76 75 74 72 69 67 66 66 66 67 67 66 65 65 65 65 64 63 62 63 64 65 66 67 68 69 71 74 79 84 89 92 95 98 97 95 92 89 86 86 87 89 92 97 103 108 110 113 115 115 113 110 107 105
57 58 59 59 60 61 61 62 62 62 63 64 64 64 64 64 65 65 66 67 67 68 69 71 72 72 72 72 72 71 70 69 68 66 65 64 63 63 63 63 63 63 63 62 63 63 64 64 64 64 65 66 67 68 68 68 68 68 68 69 73 78 82 87 92 94 94 93 90 88 86 86 87 88 90 94 99 103 106 108 110 111 110 108 106
59 60 60 60 60 60 60 60 60 61 62 62 63 62 62 62 62 63 63 64 65 66 68 69 69 69 68 68 66 65 64 63 63 63 62 61 60 59 58 58 58 60 61 62 63 64 65 66 67 68 68 68 69 69 68 68 68 68 67 67 67 69 72 76 80 85 88 89 89 89 88 87 87 88 89 90 93 95 98 100 103 106 107 107 106
60 60 60 59 59 59 59 59 59 60 60 60 59 58 59 60 60 60 61 61 63 65 66 65 64 64 63 63 62 62 61 60 59 58 56 54 53 52 53 55 58 60 61 62 63 63 64 64 65 65 65 65 65 65 64 64 65 65 65 65 65 65 66 68 71 74 78 81 84 86 87 87 88 88 89 90 90 90 91 93 96 99 102 103 103
59 59 58 58 58 58 58 58 58 58 58 56 55 54 56 57 58 58 59 60 62 63 61 60 59 58 59 60 62 62 60 57 54 51 48 47 48 51 54 56 58 59 59 58 58 59 59 60 60 60 59 58 57 58 59 59 60 61 61 61 62 63 64 64 65 66 69 73 77 80 83 84 86 87 88 89 89 88 88 88 90 92 95 98 99
58 58 58 58 58 57 57 56 56 56 54 52 52 53 55 56 56 57 58 59 59 58 55 54 54 55 57 59 61 61 58 52 47 44 44 45 48 51 53 53 54 56 57 58 59 60 61 61 61 59 58 56 54 53 54 55 56 57 58 59 59 60 61 62 62 62 64 66 69 72 76 78 81 84 86 87 88 87 86 85 85 87 89 92 94
58 58 58 57 56 55 54 53 53 52 51 50 50 52 54 55 56 57 58 57 55 51 49 49 50 52 54 57 58 56 52 46 42 41 41 43 46 49 52 53 53 55 58 61 64 64 63 62 61 60 59 57 55 53 53 52 52 53 54 56 57 58 59 59 59 60 61 62 62 64 68 71 74 77 81 84 86 86 85 84 83 83 85 87 89
57 57 56 55 54 52 51 51 51 50 48 49 50 52 54 55 56 56 56 54 50 46 44 45 47 49 51 53 52 49 45 41 40 40 41 42 44 47 51 53 55 57 60 63 63 61 59 58 57 56 55 55 54 53 53 53 53 52 52 52 53 54 55 57 58 59 59 58 57 58 60 63 66 70 73 77 81 83 83 83 82 82 83 84 86
Wind_Direction
287 287 285 284 282 281 280 278 278 278 278 277 276 275 274 273 273 273 272 270 269 267 265 265 265 265 266 267 269 271 273 274 273 272 270 266 264 262 262 262 263 265 266 268 268 267 266 266 266 266 267 268 269 269 269 270 270 269 268 268 267 267 266 265 264 264 264 264 265 264 264 264 264 265 264 264 263 264 264 264 264 265 265 266 265
286 285 284 282 281 280 279 278 277 276 276 275 275 273 271 269 269 269 269 269 268 267 266 265 264 264 264 265 266 267 269 271 272 272 271 270 267 265 264 263 263 263 265 267 269 268 268 267 267 266 266 266 267 268 269 270 270 269 268 267 267 267 267 267 267 268 269 268 267 267 267 267 267 266 266 265 265 265 264 264 264 264 264 265 265
285 284 282 281 280 279 278 278 277 276 275 274 273 271 269 268 266 264 265 266 266 266 266 266 265 264 263 263 264 265 266 267 268 270 271 272 270 269 267 265 264 264 265 266 267 269 269 269 269 268 267 267 268 269 269 270 271 271 270 269 268 268 268 268 269 270 270 269 270 270 270 269 268 269 270 269 267 265 265 265 265 265 265 265 264
286 283 280 278 277 276 276 276 276 276 275 274 272 269 266 265 264 264 263 263 263 263 264 264 264 264 263 262 263 264 265 265 265 267 269 270 271 271 270 268 266 265 265 265 265 267 269 270 270 270 270 270 270 270 270 270 270 271 270 270 270 270 270 270 269 268 268 269 270 271 270 270 271 272 271 269 268 267 266 266 266 265 265 265 265
289 286 281 276 273 271 271 273 275 275 274 272 268 265 263 265 267 267 266 265 266 266 265 265 265 265 265 264 264 264 264 266 266 266 267 268 269 270 270 270 269 267 267 266 265 265 266 268 268 269 270 270 270 270 270 270 269 269 269 269 269 270 271 270 269 268 268 269 269 269 269 270 271 271 269 269 268 268 267 266 266 265 264 265 265
290 288 285 275 267 265 266 269 273 275 273 271 267 265 266 269 271 271 271 269 269 270 270 270 269 268 268 268 267 267 266 266 267 267 267 268 268 269 269 270 270 269 269 268 268 267 266 266 267 267 268 268 268 268 268 268 268 268 269 268 268 268 269 268 269 269 269 269 269 270 270 270 269 268 268 268 267 268 268 267 266 266 265 265 265
289 286 277 263 257 260 263 268 274 274 271 270 269 270 271 271 273 274 275 275 275 275 275 275 275 274 273 273 272 271 270 270 269 269 269 268 268 268 269 269 269 269 270 270 269 269 269 268 268 267 267 267 266 266 266 267 267 267 267 268 268 268 267 267 268 269 269 268 269 270 270 270 269 268 267 267 267 267 268 268 268 267 266 265 264
280 278 265 256 256 257 258 266 277 274 269 268 268 269 271 273 275 276 277 278 279 279 279 279 278 278 277 277 276 275 275 274 273 272 270 269 268 268 268 268 267 268 268 269 269 270 270 270 270 269 269 267 266 265 265 266 266 266 266 266 267 267 267 267 267 267 267 268 269 269 269 269 269 269 268 268 268 267 268 268 268 266 266 265 263
276 271 262 260 262 259 253 261 275 277 270 268 268 268 269 271 274 276 277 278 279 279 280 280 280 280 280 279 278 277 277 277 276 274 272 270 269 267 266 266 266 266 266 266 266 267 267 268 268 269 269 269 267 266 265 264 264 265 265 265 265 265 266 266 266 266 267 268 268 269 269 269 270 270 270 270 269 269 268 267 266 265 265 264 263
283 277 266 264 266 266 261 262 273 278 274 269 268 267 268 269 271 273 275 276 277 278 278 279 280 280 280 280 279 278 277 276 275 274 273 271 269 268 267 266 265 265 265 265 265 265 265 264 265 266 266 267 267 267 266 265 264 263 263 263 263 264 265 265 266 266 266 266 267 268 269 270 270 271 271 271 270 269 268 266 265 265 264 264 263
285 282 273 267 266 268 269 270 273 277 278 276 272 270 269 269 270 270 271 273 275 277 278 278 279 279 279 280 280 279 279 277 275 273 272 270 269 268 267 267 266 265 265 265 265 264 264 263 263 264 264 264 264 265 265 265 265 264 264 263 263 263 263 265 265 266 266 266 266 267 267 268 269 269 270 270 270 269 268 267 265 264 264 264 263
284 281 275 272 269 268 270 273 273 274 276 278 277 275 273 273 274 273 272 272 272 274 275 277 278 279 279 279 278 278 278 278 276 274 272 270 269 267 267 266 266 265 265 265 265 264 264 263 263 263 263 263 263 262 263 263 264 265 265 265 265 264 264 264 264 265 265 265 266 266 267 267 267 267 268 268 269 269 269 268 266 265 265 265 264
281 278 275 274 272 272 272 274 275 274 274 276 276 275 274 275 276 276 275 275 274 273 273 274 275 276 277 277 277 277 276 276 275 274 272 271 269 268 266 265 265 265 265 265 264 264 263 263 263 264 263 263 262 262 262 261 262 262 263 264 265 266 266 265 265 265 264 264 264 265 266 267 267 268 268 268 268 268 268 268 268 266 265 265 265
280 279 278 276 274 274 273 273 274 274 274 275 274 273 273 274 274 275 275 275 274 273 272 271 272 273 274 274 275 275 274 273 272 271 271 270 269 268 266 265 264 264 264 264 264 263 263 263 263 264 264 264 263 263 262 262 261 260 261 262 263 265 266 266 266 266 265 265 265 264 264 265 266 267 267 268 268 268 268 268 268 267 266 265 265
281 280 279 277 276 274 274 273 273 273 274 274 273 273 273 273 273 273 272 272 272 271 269 268 266 266 268 269 270 271 272 272 271 270 269 269 268 267 266 264 263 262 262 263 263 263 263 263 263 263 262 263 263 263 262 262 262 261 260 260 261 262 263 265 266 266 266 266 266 265 264 263 263 264 265 266 267 267 268 268 268 268 268 266 265
280 280 279 277 276 275 275 275 275 275 276 276 277 276 275 274 273 272 272 271 270 269 268 265 263 261 260 260 261 263 265 267 268 269 269 269 268 267 266 264 262 262 261 262 262 262 263 264 263 263 262 262 262 262 262 262 262 261 261 260 260 261 261 262 263 264 265 265 266 265 265 264 263 262 263 264 265 265 266 266 267 268 268 268 266
277 277 277 277 277 276 276 277 277 278 278 279 279 278 278 277 276 276 275 274 272 270 268 265 262 260 258 256 256 256 258 259 261 263 265 267 268 268 268 266 264 263 262 261 260 261 262 262 262 262 263 263 262 262 261 261 261 261 261 261 260 260 260 261 261 262 263 264 265 265 265 264 263 262 262 262 263 264 265 265 265 265 266 266 266
277 276 276 276 276 276 277 278 279 279 280 280 279 279 278 278 277 277 276 275 273 270 267 264 262 260 258 257 257 257 258 259 259 260 260 261 263 265 266 267 267 266 264 262 260 259 259 260 260 261 262 263 263 263 262 261 260 259 259 259 260 260 260 260 260 260 261 262 263 263 263 264 264 263 262 261 261 261 262 263 263 263 264 264 265
278 278 277 276 275 276 278 279 280 280 280 280 280 279 279 278 277 276 276 275 272 268 265 262 260 259 259 259 260 261 263 264 264 264 263 261 260 259 260 261 262 264 264 264 263 262 261 260 260 260 261 262 262 262 262 262 261 260 259 258 258 259 259 259 259 259 260 260 261 261 262 262 263 263 263 262 261 260 260 261 261 262 262 262 263
279 279 278 277 277 278 280 280 279 279 278 278 278 278 278 278 278 278 278 277 275 272 268 265 263 262 262 263 264 265 266 267 269 269 267 263 260 257 255 255 256 257 259 261 262 263 263 263 263 263 263 264 264 264 263 262 262 262 261 260 259 259 258 258 259 259 259 260 260 260 261 261 262 262 262 262 261 260 259 259 259 259 260 260 261
278 278 278 278 278 279 280 279 278 277 276 275 275 275 276 277 279 280 280 280 278 276 273 271 269 268 268 269 269 269 270 271 272 271 268 264 260 258 256 255 255 255 255 256 257 258 260 262 263 263 264 265 265 266 267 267 266 264 264 263 262 261 260 259 258 258 259 259 259 259 260 260 261 261 261 262 261 261 259 258 258 258 258 258 259
277 277 277 277 278 278 279 278 277 276 276 275 274 274 274 275 276 278 279 278 278 277 277 276 275 274 273 273 273 273 273 273 273 272 269 265 262 260 258 257 256 255 255 255 255 255 256 257 259 260 262 264 265 265 267 269 269 268 268 267 265 264 263 262 261 259 258 258 258 258 259 259 260 260 261 261 261 261 260 259 258 257 257 257 257
276 276 276 277 278 279 279 279 279 279 279 278 277 276 276 276 276 277 277 276 276 277 277 277 277 276 276 275 274 273 272 271 271 270 269 267 265 263 262 260 258 257 257 257 257 257 257 257 257 258 259 260 262 264 265 268 269 268 267 268 268 267 266 265 264 262 261 259 258 257 258 258 258 258 259 260 260 261 260 259 258 257 256 256 256
275 276 276 277 278 279 279 280 280 280 280 280 279 277 276 276 276 276 276 276 276 277 277 277 277 276 275 274 272 270 269 268 267 267 267 266 265 265 265 264 263 261 260 260 260 261 261 261 261 261 261 260 260 262 264 266 267 266 265 266 267 268 267 266 265 264 263 262 261 259 258 257 257 258 257 258 259 259 260 259 258 257 256 255 255
275 275 276 276 277 278 278 279 279 279 279 279 278 276 275 275 275 275 276 276 277 277 277 277 276 275 273 271 269 267 267 266 266 266 267 267 268 268 268 269 268 267 266 265 264 263 263 263 263 264 265 265 265 264 264 265 266 266 265 264 264 266 266 266 265 264 263 263 262 260 259 258 257 257 257 257 257 258 258 259 259 258 256 254 253
274 275 275 276 277 278 278 279 279 279 278 278 278 277 277 276 276 276 276 276 277 276 276 276 275 274 273 272 271 271 270 270 270 270 270 271 272 272 272 272 272 272 271 270 269 268 267 267 267 266 267 267 267 267 266 266 265 266 266 265 263 263 264 264 264 263 263 262 261 260 259 258 257 257 256 255 255 256 257 258 258 258 256 254 252
276 277 277 278 279 279 279 279 279 279 279 279 278 278 278 278 278 278 277 277 277 277 276 276 275 274 273 273 273 274 274 275 275 275 274 274 274 274 274 273 273 273 273 272 272 271 271 271 270 270 270 269 268 268 267 266 265 264 264 264 263 262 263 263 262 262 261 261 260 260 258 257 257 256 255 254 254 254 255 255 256 257 256 254 252
278 279 279 280 280 280 280 280 280 280 279 279 279 278 278 278 278 277 277 277 277 277 276 276 275 275 274 274 274 274 275 276 277 277 277 276 275 275 274 274 273 272 272 272 272 271 271 270 270 269 268 268 268 267 267 266 265 264 263 262 262 262 262 263 262 261 260 260 259 259 258 258 256 255 255 254 254 254 253 254 254 255 255 255 253
279 280 280 280 280 280 280 280 280 279 279 279 278 278 278 277 277 277 277 277 277 276 276 276 276 275 275 275 275 275 275 276 277 277 277 277 276 275 275 274 274 273 273 272 272 271 271 270 269 268 267 266 266 266 266 266 265 264 263 262 261 261 262 263 263 263 261 260 259 259 258 258 257 256 255 254 254 254 254 254 253 253 254 254 253
280 280 279 279 279 279 279 279 279 278 278 278 277 277 277 277 277 277 277 277 277 277 276 276 276 276 275 275 275 276 276 276 276 276 276 276 276 275 275 274 274 273 273 273 272 272 271 270 269 268 267 266 265 265 264 264 264 264 263 262 261 260 260 261 262 263 262 262 260 259 258 258 257 257 256 255 254 254 254 254 253 252 252 253 253
281 280 280 280 279 279 278 278 277 277 277 276 276 276 276 276 276 276 276 276 276 276 276 276 276 276 276 276 276 276 276 276 277 277 276 276 276 275 275 274 273 272 272 271 271 271 270 270 269 268 267 266 266 265 265 264 264 263 263 262 261 260 260 260 260 261 262 262 261 260 259 258 257 257 256 256 255 254 254 254 253 253 252 252 252
282 281 281 280 280 280 279 279 278 278 277 277 276 276 276 276 276 276 276 276 276 275 275 275 275 275 276 276 276 276 276 276 276 276 276 276 276 276 275 275 274 273 272 271 270 270 269 269 269 268 267 267 266 266 265 265 265 264 263 262 261 259 258 258 258 259 259 260 260 260 259 258 257 256 255 255 255 254 254 253 253 253 252 252 251
282 282 282 282 281 281 281 280 280 280 279 279 279 278 278 278 278 278 278 278 278 278 277 277 277 276 276 276 276 276 276 276 276 276 276 276 276 276 275 275 275 274 273 272 271 271 270 269 269 268 267 267 266 265 265 265 265 265 265 264 263 261 259 257 256 256 257 257 258 258 258 258 257 256 255 254 254 254 254 253 253 253 253 252 252
283 283 283 283 283 283 283 283 282 282 281 281 281 281 281 280 281 280 280 280 280 280 280 279 279 279 278 278 278 278 278 277 277 277 276 276 276 276 276 275 275 275 274 274 273 272 271 270 270 269 268 267 267 266 265 265 265 265 265 264 264 262 261 259 257 255 255 255 255 256 256 256 256 255 254 254 253 253 253 253 253 253 253 252 251
285 285 285 285 286 286 285 284 284 283 283 283 282 282 282 282 282 281 281 281 281 281 281 280 280 280 280 280 279 279 279 278 278 277 277 277 277 276 276 276 276 275 275 275 274 274 273 272 271 271 270 269 268 267 267 266 265 265 265 265 264 263 262 260 259 257 255 254 253 253 254 254 255 255 255 254 253 252 252 252 252 252 252 252 251
287 287 287 287 287 287 286 286 285 284 284 283 283 283 282 282 282 282 282 282 282 282 282 282 282 282 282 282 281 281 280 280 279 279 279 278 278 278 278 277 277 276 276 275 275 275 274 274 273 272 271 270 269 268 268 267 266 266 265 264 264 264 263 261 259 258 257 255 254 252 252 252 252 253 254 254 254 253 252 252 252 252 252 252 251
287 287 288 288 287 286 286 285 285 285 284 284 284 284 284 284 283 284 284 283 284 284 284 284 284 284 284 283 283 283 282 282 282 281 281 280 280 280 279 279 279 278 277 277 276 275 275 274 274 273 273 272 271 269 269 268 267 267 266 264 263 263 263 262 260 258 257 256 255 254 252 251 250 251 252 253 253 253 253 251 251 251 251 251 251
288 288 288 287 286 286 285 285 285 285 285 285 285 285 285 285 285 285 285 285 285 285 285 285 285 285 285 285 285 285 284 284 283 283 283 282 282 281 281 281 280 280 279 278 277 276 275 274 274 273 273 272 272 271 270 269 268 268 267 266 264 263 261 261 260 259 258 256 255 254 254 252 250 249 250 252 253 253 253 252 251 251 251 250 251
288 288 287 286 286 286 286 286 286 286 286 286 286 286 286 286 286 286 287 287 287 287 287 286 286 286 286 286 286 285 285 285 285 284 284 284 283 283 282 282 281 281 280 279 278 278 276 275 274 273 273 272 272 271 271 270 269 268 268 267 266 264 262 260 259 259 258 257 256 254 254 253 252 250 249 251 252 253 253 253 252 252 251 250 250
288 288 287 287 287 286 286 286 286 286 287 287 287 288 288 288 288 287 287 287 287 287 287 287 287 287 287 287 287 286 286 286 286 286 285 285 285 284 284 283 282 281 281 280 279 278 277 276 275 274 273 272 271 271 270 270 269 269 268 268 267 266 264 263 260 258 257 256 256 254 253 253 252 251 250 251 252 253 253 253 253 252 251 250 250
289 288 288 288 288 287 286 287 287 287 288 288 289 289 288 288 288 288 288 288 288 288 288 288 288 288 288 288 288 287 287 288 288 288 287 287 286 286 285 284 284 283 282 281 280 279 278 277 275 274 273 272 272 271 269 268 268 268 267 267 267 266 265 264 262 260 258 256 255 254 253 252 252 251 251 251 251 252 253 253 252 252 252 251 250
291 290 289 288 288 287 288 288 288 289 289 289 289 289 289 289 289 289 289 289 289 289 289 289 289 289 289 289 289 290 290 290 290 290 289 289 289 288 288 287 286 284 283 282 282 281 280 279 278 277 276 274 273 272 270 268 267 266 265 265 265 265 265 264 263 261 259 257 256 254 253 252 251 250 250 250 251 252 252 253 252 252 252 252 251
291 290 289 288 288 288 288 289 289 289 289 289 289 289 289 290 290 290 290 290 290 291 291 291 291 291 291 292 293 293 293 293 293 292 292 292 291 290 289 288 287 287 286 286 285 284 283 283 281 280 279 278 276 274 273 270 268 266 265 264 264 264 264 263 262 262 260 258 256 254 253 252 251 250 249 249 250 251 251 252 252 252 252 252 251
290 290 289 289 289 289 289 290 290 290 290 290 290 290 290 291 291 291 291 291 292 293 293 294 294 294 295 296 296 296 295 295 295 295 295 295 294 292 291 291 290 290 290 289 288 287 286 285 284 283 282 281 279 278 276 274 271 269 266 265 264 263 262 262 262 261 260 259 257 254 253 252 251 250 249 249 248 249 250 250 251 251 252 251 250
291 291 291 290 290 290 290 290 291 290 290 291 291 291 291 291 291 292 293 294 295 296 296 296 297 298 299 298 298 298 298 298 298 298 297 296 295 294 294 294 294 293 292 291 289 288 287 286 285 284 283 282 281 280 278 276 273 271 269 267 265 264 263 262 261 261 260 259 257 255 253 251 250 249 249 248 248 247 247 248 249 249 250 249 248
292 292 292 292 292 292 292 292 291 291 291 291 292 292 293 292 293 294 296 297 298 298 299 300 300 301 301 301 301 301 301 300 300 300 299 298 298 298 298 297 297 295 294 293 291 290 289 288 287 285 284 283 283 281 279 277 274 271 269 268 267 266 265 264 262 261 260 258 257 255 253 250 249 248 247 247 247 247 246 246 247 247 247 247 247
294 294 294 293 293 293 292 292 292 292 292 292 293 294 294 294 295 297 299 300 300 300 301 302 302 303 303 304 304 304 303 302 302 302 301 300 301 301 301 301 300 298 297 296 295 294 293 292 290 289 287 286 284 282 280 277 274 271 269 268 267 266 265 265 264 262 261 258 256 254 252 250 248 247 246 246 246 246 245 245 245 245 246 246 246
295 295 294 294 294 293 293 292 292 292 292 294 294 294 294 296 298 300 301 301 301 302 303 304 304 305 306 307 307 306 306 305 304 303 302 302 303 304 304 304 303 302 301 300 299 298 296 294 293 291 290 289 287 285 282 278 274 271 268 268 267 265 264 265 265 264 263 260 257 255 252 250 249 247 247 246 246 246 245 245 244 245 245 246 245
296 295 295 294 293 293 293 292 292 292 294 294 294 294 295 298 300 302 302 302 303 303 304 305 306 308 309 309 308 307 307 305 304 302 302 303 305 307 307 307 306 305 304 303 302 300 297 293 291 289 288 287 286 285 283 281 277 273 269 267 266 265 264 264 264 265 264 262 260 257 254 252 250 248 246 246 246 246 245 244 243 244 245 245 245
296 295 295 294 293 293 293 292 292 294 294 294 294 295 297 300 302 303 303 303 303 303 304 306 308 310 310 310 309 308 306 304 302 300 301 304 308 310 311 311 309 308 307 306 305 303 300 296 292 289 286 284 282 280 280 280 278 275 272 269 266 265 264 263 263 263 263 263 262 260 257 254 251 248 246 245 245 245 244 243 242 242 243 244 244
295 294 294 293 293 293 293 293 294 294 294 294 295 296 298 301 303 303 303 303 302 302 304 308 310 311 312 313 313 310 306 303 301 300 302 305 309 313 314 313 312 311 311 310 309 308 305 302 299 295 291 287 284 280 277 276 276 275 273 271 268 266 264 263 262 262 262 263 264 263 260 257 253 250 247 245 244 243 243 242 241 240 240 241 242
Height
5785 5785 5785 5784 5783 5782 5782 5782 5782 5781 5781 5780 5780 5780 5780 5780 5779 5779 5779 5779 5779 5778 5778 5778 5777 5777 5777 5777 5777 5776 5776 5776 5776 5775 5775 5775 5776 5776 5777 5778 5778 5777 5775 5775 5776 5776 5776 5776 5776 5776 5777 5777 5777 5777 5777 5777 5777 5779 5779 5779 5778 5779 5779 5779 5780 5780 5780 5780 5780 5780 5780 5780 5781 5782 5782 5783 5783 5783 5783 5783 5783 5784 5785 5785 5786
5781 5781 5781 5780 5779 5779 5778 5777 5777 5777 5776 5776 5775 5775 5775 5775 5775 5775 5774 5774 5774 5774 5773 5773 5773 5773 5772 5772 5772 5772 5772 5771 5770 5770 5770 5770 5771 5771 5772 5772 5772 5772 5771 5771 5771 5771 5771 5771 5772 5772 5773 5773 5772 5772 5772 5772 5772 5774 5774 5774 5774 5773 5774 5775 5776 5776 5776 5776 5775 5774 5775 5776 5776 5777 5777 5778 5778 5778 5777 5777 5778 5779 5779 5780 5780
5778 5777 5777 5776 5776 5775 5774 5773 5773 5772 5772 5771 5771 5771 5770 5770 5770 5770 5770 5770 5770 5769 5769 5769 5768 5768 5768 5768 5767 5767 5767 5766 5766 5765 5764 5764 5765 5766 5766 5767 5767 5766 5766 5766 5765 5765 5766 5767 5767 5768 5769 5769 5769 5768 5768 5767 5767 5768 5769 5769 5768 5768 5768 5770 5772 5772 5771 5769 5769 5769 5771 5770 5771 5772 5773 5773 5773 5771 5771 5771 5772 5773 5774 5774 5775
5774 5774 5773 5773 5772 5771 5770 5769 5768 5768 5768 5767 5767 5767 5766 5766 5766 5766 5766 5766 5765 5765 5765 5765 5764 5763 5763 5763 5763 5763 5762 5762 5762 5761 5760 5759 5759 5759 5759 5760 5761 5761 5761 5761 5760 5760 5760 5761 5761 5762 5763 5764 5764 5763 5763 5763 5763 5763 5763 5763 5763 5763 5762 5764 5765 5765 5764 5764 5763 5763 5764 5764 5766 5768 5767 5766 5766 5766 5766 5766 5766 5767 5767 5768 5769
5770 5770 5769 5769 5768 5767 5766 5765 5764 5764 5763 5763 5763 5762 5762 5762 5761 5761 5761 5761 5761 5761 5761 5760 5760 5759 5759 5758 5758 5758 5758 5757 5757 5756 5756 5755 5754 5754 5754 5754 5754 5754 5755 5755 5755 5755 5754 5754 5754 5755 5756 5758 5758 5757 5757 5757 5757 5757 5757 5758 5758 5757 5757 5757 5758 5759 5759 5759 5757 5756 5757 5758 5761 5761 5759 5760 5760 5760 5760 5760 5760 5761 5761 5762 5763
5763 5763 5763 5763 5763 5762 5762 5761 5761 5760 5760 5759 5759 5758 5758 5757 5757 5757 5757 5756 5756 5756 5756 5755 5755 5755 5754 5754 5753 5753 5753 5753 5752 5752 5752 5751 5750 5750 5749 5748 5748 5748 5748 5748 5748 5748 5748 5748 5748 5748 5749 5750 5751 5750 5750 5750 5750 5751 5751 5751 5751 5751 5751 5750 5751 5753 5753 5752 5751 5751 5751 5752 5753 5753 5753 5754 5754 5754 5754 5754 5754 5755 5755 5756 5757
5757 5757 5757 5757 5757 5758 5757 5757 5757 5757 5757 5756 5755 5754 5753 5752 5752 5751 5751 5751 5751 5750 5750 5750 5750 5750 5749 5749 5749 5748 5748 5747 5747 5747 5747 5746 5746 5746 5745 5744 5743 5743 5743 5742 5742 5742 5741 5741 5741 5741 5742 5743 5743 5743 5743 5743 5743 5744 5744 5744 5744 5745 5744 5744 5745 5746 5746 5746 5746 5746 5745 5745 5746 5746 5747 5747 5748 5748 5748 5748 5749 5749 5749 5749 5750
5752 5752 5752 5752 5752 5752 5752 5751 5752 5752 5752 5751 5751 5749 5748 5747 5746 5746 5745 5745 5745 5744 5744 5744 5744 5744 5743 5743 5743 5743 5742 5742 5741 5741 5741 5741 5740 5740 5739 5738 5738 5738 5737 5737 5736 5736 5735 5735 5735 5735 5735 5735 5736 5736 5736 5736 5736 5736 5737 5737 5737 5737 5737 5737 5738 5738 5739 5739 5740 5739 5739 5739 5739 5739 5740 5741 5741 5742 5743 5742 5742 5742 5742 5742 5743
5748 5748 5748 5748 5747 5747 5745 5743 5744 5746 5746 5745 5744 5744 5743 5742 5740 5740 5739 5738 5738 5738 5737 5737 5736 5736 5736 5736 5736 5736 5736 5735 5734 5734 5734 5734 5733 5733 5733 5732 5731 5731 5731 5731 5731 5730 5730 5729 5729 5728 5728 5728 5728 5728 5728 5728 5728 5728 5729 5730 5729 5729 5729 5729 5729 5730 5732 5733 5732 5732 5732 5733 5732 5733 5733 5735 5735 5736 5736 5736 5735 5734 5735 5736 5736
5743 5744 5744 5744 5742 5741 5739 5737 5736 5737 5738 5738 5738 5737 5736 5736 5735 5733 5732 5731 5731 5730 5730 5729 5729 5728 5728 5728 5728 5728 5728 5728 5727 5727 5727 5727 5726 5726 5726 5725 5724 5724 5724 5724 5723 5723 5723 5723 5722 5722 5722 5721 5721 5721 5720 5720 5720 5720 5720 5721 5721 5721 5721 5721 5721 5722 5724 5725 5725 5724 5725 5725 5726 5726 5727 5727 5728 5728 5729 5729 5729 5728 5728 5728 5729
5738 5738 5738 5738 5736 5735 5733 5731 5729 5727 5728 5730 5730 5730 5729 5728 5728 5727 5726 5725 5724 5723 5722 5721 5721 5721 5720 5720 5719 5719 5718 5719 5719 5719 5719 5719 5719 5718 5718 5718 5717 5716 5716 5716 5716 5715 5715 5715 5715 5715 5715 5715 5714 5714 5713 5713 5712 5712 5712 5712 5713 5713 5713 5713 5713 5714 5715 5716 5717 5717 5717 5717 5718 5718 5719 5719 5720 5721 5722 5722 5722 5722 5721 5722 5722
5730 5731 5731 5730 5729 5727 5725 5723 5721 5720 5719 5720 5720 5720 5720 5719 5719 5719 5719 5718 5717 5716 5715 5713 5712 5712 5711 5711 5711 5710 5709 5709 5709 5709 5709 5710 5710 5710 5710 5710 5709 5709 5708 5708 5708 5707 5707 5707 5707 5707 5707 5707 5707 5707 5706 5705 5705 5705 5704 5704 5705 5705 5705 5705 5704 5705 5706 5707 5709 5709 5709 5709 5710 5710 5710 5711 5712 5713 5713 5714 5715 5715 5716 5717 5716
5721 5722 5722 5721 5720 5718 5717 5714 5712 5711 5711 5711 5711 5711 5710 5710 5710 5710 5710 5710 5709 5709 5708 5706 5705 5703 5702 5702 5701 5701 5701 5700 5700 5700 5700 5700 5700 5700 5700 5700 5700 5700 5700 5700 5699 5699 5698 5698 5699 5699 5699 5699 5699 5699 5699 5698 5697 5697 5696 5696 5697 5697 5697 5696 5697 5697 5697 5698 5700 5701 5701 5702 5702 5703 5703 5703 5704 5704 5705 5707 5708 5708 5710 5710 5710
5712 5712 5712 5711 5710 5708 5707 5705 5704 5703 5702 5701 5702 5702 5701 5701 5700 5700 5700 5700 5699 5699 5699 5698 5697 5696 5694 5693 5692 5691 5691 5691 5691 5690 5690 5690 5690 5690 5690 5691 5691 5691 5691 5690 5690 5690 5689 5689 5689 5690 5689 5690 5690 5691 5690 5690 5689 5689 5689 5688 5688 5688 5688 5688 5689 5688 5688 5689 5690 5691 5693 5694 5695 5695 5694 5695 5696 5696 5697 5699 5699 5700 5702 5703 5704
5704 5703 5702 5701 5700 5698 5696 5695 5694 5693 5692 5692 5691 5692 5692 5692 5691 5691 5690 5689 5689 5688 5688 5688 5687 5687 5686 5685 5684 5683 5682 5681 5681 5680 5681 5680 5680 5680 5680 5680 5680 5680 5681 5681 5681 5681 5680 5680 5680 5680 5680 5680 5681 5681 5681 5681 5680 5680 5680 5680 5680 5680 5679 5680 5680 5680 5680 5680 5680 5681 5683 5684 5686 5686 5686 5687 5687 5688 5689 5690 5691 5691 5692 5695 5697
5695 5693 5692 5691 5690 5688 5687 5686 5684 5683 5682 5681 5681 5681 5681 5681 5681 5681 5680 5680 5679 5678 5677 5677 5676 5676 5676 5676 5675 5675 5674 5673 5672 5671 5671 5670 5670 5670 5670 5670 5670 5670 5670 5670 5670 5671 5671 5670 5670 5669 5669 5669 5670 5671 5671 5671 5671 5671 5671 5671 5671 5670 5670 5671 5671 5671 5672 5671 5671 5672 5673 5675 5676 5676 5677 5678 5678 5679 5680 5681 5683 5684 5684 5685 5688
5686 5685 5683 5682 5681 5679 5678 5677 5675 5674 5673 5672 5671 5671 5671 5671 5670 5670 5670 5670 5669 5669 5668 5667 5666 5666 5666 5665 5665 5665 5664 5664 5663 5662 5662 5661 5660 5660 5659 5659 5660 5660 5660 5660 5660 5660 5660 5660 5660 5659 5659 5659 5659 5660 5660 5661 5661 5661 5661 5661 5661 5661 5661 5662 5662 5662 5662 5662 5662 5663 5664 5665 5666 5666 5668 5669 5669 5670 5671 5672 5675 5676 5675 5675 5678
5677 5677 5675 5674 5673 5671 5670 5668 5667 5666 5665 5663 5662 5661 5661 5661 5661 5660 5660 5660 5660 5660 5659 5658 5657 5656 5656 5655 5654 5654 5654 5653 5653 5653 5652 5652 5651 5650 5649 5648 5648 5648 5648 5648 5649 5649 5649 5649 5649 5649 5648 5648 5648 5648 5649 5649 5650 5650 5651 5651 5651 5650 5651 5652 5652 5652 5652 5652 5653 5654 5654 5655 5656 5656 5657 5659 5660 5661 5661 5663 5665 5667 5667 5667 5668
5669 5668 5666 5665 5664 5663 5662 5660 5659 5658 5656 5655 5653 5652 5651 5651 5651 5651 5651 5651 5651 5651 5650 5649 5648 5647 5646 5645 5644 5643 5643 5642 5642 5642 5641 5641 5641 5640 5639 5639 5638 5637 5636 5636 5636 5636 5636 5637 5637 5637 5637 5637 5637 5637 5637 5637 5638 5638 5639 5640 5640 5640 5641 5642 5641 5642 5642 5642 5643 5644 5644 5646 5646 5645 5647 5649 5650 5651 5651 5652 5654 5656 5657 5658 5659
5661 5659 5657 5656 5654 5653 5652 5651 5651 5650 5648 5647 5645 5643 5641 5640 5640 5640 5640 5641 5641 5641 5640 5639 5638 5637 5636 5635 5634 5633 5632 5631 5630 5630 5629 5629 5629 5628 5628 5627 5627 5626 5626 5625 5625 5624 5624 5624 5624 5624 5624 5624 5624 5625 5625 5625 5626 5626 5626 5627 5628 5628 5630 5631 5631 5631 5632 5631 5632 5634 5634 5635 5635 5634 5637 5639 5639 5640 5641 5642 5643 5645 5646 5648 5650
5653 5651 5649 5647 5645 5643 5643 5642 5641 5640 5639 5638 5636 5634 5632 5631 5629 5629 5629 5629 5629 5629 5629 5628 5627 5626 5625 5624 5622 5621 5620 5619 5618 5618 5617 5617 5617 5616 5616 5616 5615 5615 5615 5615 5615 5614 5614 5613 5613 5612 5612 5612 5612 5612 5612 5613 5613 5613 5613 5614 5615 5616 5618 5619 5620 5621 5621 5621 5622 5623 5624 5625 5624 5624 5627 5629 5629 5630 5630 5631 5632 5633 5635 5638 5639
5644 5642 5640 5638 5636 5634 5633 5632 5631 5630 5629 5628 5627 5626 5624 5622 5620 5619 5618 5618 5617 5616 5616 5615 5615 5614 5613 5612 5610 5609 5608 5607 5606 5605 5605 5605 5604 5604 5604 5604 5604 5603 5603 5603 5603 5604 5604 5604 5603 5603 5602 5601 5601 5601 5601 5601 5601 5601 5601 5601 5602 5603 5605 5606 5608 5609 5610 5610 5611 5613 5614 5613 5612 5614 5617 5619 5619 5619 5619 5620 5621 5622 5624 5627 5628
5635 5633 5631 5629 5627 5625 5623 5622 5620 5619 5618 5617 5616 5616 5614 5613 5611 5609 5608 5606 5605 5605 5603 5603 5602 5601 5600 5599 5598 5597 5596 5595 5594 5593 5593 5592 5592 5592 5592 5592 5592 5591 5591 5591 5590 5591 5591 5591 5591 5592 5592 5591 5590 5590 5589 5590 5590 5590 5589 5589 5589 5590 5592 5593 5595 5596 5597 5597 5599 5602 5603 5602 5601 5603 5607 5608 5608 5608 5608 5609 5611 5612 5613 5616 5617
5627 5624 5621 5619 5617 5615 5613 5611 5610 5608 5607 5606 5604 5604 5603 5602 5600 5598 5596 5594 5593 5592 5591 5590 5589 5588 5587 5587 5586 5585 5584 5583 5582 5581 5581 5580 5580 5579 5579 5579 5579 5579 5579 5579 5578 5578 5578 5578 5578 5578 5578 5579 5579 5579 5578 5578 5578 5578 5578 5578 5578 5578 5579 5580 5582 5583 5584 5585 5586 5589 5591 5590 5590 5593 5596 5597 5596 5597 5597 5599 5601 5602 5603 5605 5606
5617 5614 5612 5609 5607 5606 5603 5601 5600 5598 5597 5595 5593 5592 5591 5590 5589 5587 5585 5583 5581 5579 5578 5577 5577 5575 5574 5574 5573 5572 5572 5571 5570 5569 5568 5567 5567 5566 5566 5566 5566 5566 5566 5566 5566 5566 5566 5566 5566 5565 5565 5565 5566 5567 5567 5566 5566 5566 5566 5567 5567 5567 5568 5568 5569 5571 5572 5573 5574 5576 5577 5577 5578 5582 5586 5585 5584 5585 5587 5588 5590 5592 5593 5593 5593
5606 5604 5602 5600 5598 5596 5594 5592 5590 5587 5586 5584 5582 5580 5579 5577 5576 5575 5573 5571 5569 5567 5565 5564 5563 5562 5561 5560 5559 5558 5558 5557 5557 5556 5555 5554 5553 5553 5553 5552 5552 5552 5552 5552 5552 5552 5553 5553 5553 5554 5554 5553 5553 5554 5554 5554 5554 5554 5554 5555 5555 5556 5556 5557 5558 5559 5560 5561 5563 5564 5565 5565 5567 5571 5573 5573 5572 5574 5575 5577 5580 5582 5582 5581 5581
5596 5594 5592 5590 5588 5586 5584 5582 5579 5576 5574 5571 5570 5567 5565 5564 5562 5561 5559 5558 5556 5555 5553 5551 5550 5549 5548 5546 5545 5544 5543 5543 5542 5542 5541 5541 5540 5540 5540 5539 5539 5538 5538 5538 5538 5538 5538 5539 5539 5539 5539 5539 5540 5541 5541 5541 5541 5541 5542 5542 5543 5543 5544 5545 5546 5547 5548 5549 5551 5552 5553 5554 5556 5558 5560 5560 5561 5562 5564 5566 5569 5570 5569 5568 5570
5587 5584 5582 5579 5577 5575 5573 5570 5567 5564 5561 5558 5556 5554 5551 5549 5548 5546 5545 5544 5542 5541 5539 5538 5536 5535 5533 5532 5531 5530 5529 5528 5528 5527 5526 5526 5525 5525 5525 5525 5525 5524 5524 5524 5524 5524 5524 5524 5524 5525 5525 5524 5525 5525 5526 5526 5526 5527 5528 5528 5530 5530 5531 5532 5534 5535 5536 5537 5538 5540 5541 5543 5544 5546 5548 5548 5548 5550 5552 5554 5557 5558 5556 5557 5559
5577 5574 5571 5568 5566 5564 5561 5558 5555 5552 5548 5545 5543 5540 5538 5536 5534 5532 5531 5529 5528 5527 5525 5524 5522 5520 5518 5517 5516 5515 5514 5513 5512 5512 5512 5511 5511 5511 5511 5510 5509 5509 5509 5508 5509 5509 5509 5509 5509 5509 5510 5510 5510 5511 5511 5510 5510 5511 5512 5513 5515 5516 5517 5518 5519 5522 5523 5525 5526 5527 5528 5530 5532 5534 5536 5536 5537 5538 5539 5542 5545 5544 5543 5545 5547
5565 5563 5559 5557 5554 5551 5548 5545 5542 5539 5536 5533 5531 5528 5525 5523 5521 5520 5518 5516 5515 5514 5512 5510 5508 5506 5504 5502 5500 5499 5498 5497 5496 5496 5496 5495 5495 5495 5495 5495 5495 5493 5493 5492 5493 5493 5493 5493 5494 5494 5494 5494 5495 5496 5496 5494 5494 5495 5495 5497 5499 5501 5502 5503 5505 5507 5509 5511 5513 5514 5516 5517 5519 5522 5524 5525 5526 5527 5528 5531 5532 5530 5530 5533 5535
5551 5548 5546 5544 5541 5538 5534 5531 5528 5526 5523 5521 5518 5515 5513 5511 5509 5508 5506 5504 5503 5501 5499 5497 5495 5492 5490 5488 5486 5485 5483 5482 5481 5479 5479 5478 5477 5477 5477 5478 5478 5478 5478 5477 5477 5478 5477 5477 5477 5478 5479 5479 5479 5480 5480 5479 5479 5479 5479 5480 5482 5485 5487 5488 5490 5493 5495 5497 5498 5500 5502 5504 5506 5509 5511 5512 5514 5516 5518 5519 5519 5518 5518 5521 5524
5536 5533 5530 5528 5526 5523 5520 5517 5514 5512 5510 5507 5504 5501 5499 5498 5496 5494 5492 5490 5489 5487 5486 5484 5482 5480 5477 5475 5473 5471 5470 5468 5467 5464 5463 5462 5460 5459 5458 5458 5458 5459 5460 5461 5462 5462 5462 5461 5460 5460 5462 5463 5464 5465 5465 5464 5463 5463 5462 5462 5464 5468 5471 5473 5475 5477 5480 5482 5484 5485 5488 5490 5493 5496 5497 5499 5501 5504 5506 5506 5506 5506 5507 5510 5512
5521 5518 5516 5513 5511 5509 5506 5503 5501 5499 5497 5494 5491 5489 5487 5485 5483 5481 5478 5476 5474 5473 5471 5470 5469 5466 5464 5462 5459 5458 5456 5455 5453 5450 5448 5446 5444 5443 5442 5440 5440 5440 5441 5442 5444 5444 5445 5445 5444 5443 5444 5446 5447 5450 5450 5448 5448 5448 5447 5445 5446 5449 5453 5456 5459 5462 5464 5467 5469 5471 5473 5476 5479 5482 5483 5485 5488 5490 5492 5493 5494 5495 5497 5500 5502
5510 5507 5504 5501 5499 5497 5494 5492 5489 5487 5485 5483 5480 5478 5476 5473 5471 5468 5466 5464 5462 5460 5458 5456 5455 5453 5450 5448 5446 5444 5442 5441 5439 5436 5433 5432 5430 5428 5427 5425 5423 5422 5423 5423 5424 5425 5426 5426 5426 5425 5426 5427 5430 5433 5433 5431 5431 5431 5431 5429 5428 5430 5434 5438 5442 5445 5448 5451 5454 5455 5458 5462 5465 5466 5468 5472 5474 5475 5476 5478 5480 5483 5486 5490 5491
5500 5497 5495 5491 5488 5486 5483 5481 5478 5476 5474 5472 5470 5468 5465 5463 5460 5457 5455 5453 5450 5448 5446 5444 5443 5441 5438 5435 5433 5430 5428 5426 5424 5421 5419 5417 5415 5413 5411 5410 5407 5406 5406 5406 5405 5405 5406 5406 5407 5406 5405 5407 5412 5415 5414 5412 5412 5413 5413 5411 5410 5412 5416 5420 5423 5427 5430 5434 5437 5439 5442 5447 5450 5452 5454 5457 5458 5459 5461 5463 5467 5470 5474 5478 5480
5490 5488 5486 5484 5480 5476 5473 5471 5468 5466 5464 5462 5460 5458 5456 5453 5450 5447 5445 5443 5440 5438 5435 5433 5431 5429 5426 5423 5420 5417 5415 5413 5410 5407 5405 5402 5400 5398 5396 5394 5391 5390 5390 5390 5389 5388 5387 5387 5388 5387 5385 5386 5391 5395 5394 5392 5392 5393 5393 5393 5392 5392 5395 5399 5405 5409 5412 5415 5419 5422 5426 5431 5435 5437 5440 5442 5441 5442 5444 5449 5454 5458 5461 5464 5467
5481 5479 5478 5475 5472 5468 5464 5462 5460 5457 5455 5453 5451 5449 5446 5444 5441 5438 5436 5433 5430 5428 5426 5423 5421 5418 5415 5412 5408 5404 5402 5400 5397 5394 5391 5389 5386 5383 5381 5378 5374 5373 5374 5374 5373 5372 5371 5370 5369 5369 5367 5365 5369 5374 5375 5373 5372 5372 5372 5372 5372 5374 5376 5378 5384 5390 5393 5396 5400 5405 5409 5413 5418 5422 5426 5427 5426 5425 5428 5434 5439 5444 5446 5449 5455
5472 5471 5470 5467 5463 5460 5456 5454 5452 5449 5446 5444 5442 5440 5437 5435 5432 5429 5427 5424 5422 5419 5416 5414 5411 5407 5404 5400 5396 5392 5389 5386 5384 5381 5377 5375 5372 5369 5367 5363 5359 5356 5356 5357 5355 5353 5354 5354 5352 5351 5350 5347 5348 5353 5356 5353 5352 5352 5350 5349 5350 5352 5355 5359 5364 5369 5373 5377 5381 5386 5391 5394 5400 5406 5410 5411 5410 5410 5413 5418 5424 5428 5431 5436 5445
5464 5463 5461 5458 5455 5452 5449 5445 5443 5440 5438 5435 5433 5431 5428 5426 5423 5420 5418 5415 5412 5410 5407 5404 5401 5397 5393 5390 5385 5381 5377 5373 5370 5367 5364 5361 5358 5355 5352 5349 5345 5341 5339 5339 5338 5336 5335 5337 5336 5334 5334 5331 5331 5334 5337 5335 5333 5333 5331 5328 5328 5328 5331 5338 5346 5350 5352 5356 5360 5367 5372 5376 5381 5389 5392 5393 5394 5395 5397 5403 5408 5411 5415 5425 5436
5457 5455 5453 5450 5448 5444 5441 5437 5435 5432 5429 5427 5425 5423 5420 5417 5414 5411 5409 5406 5403 5400 5397 5394 5391 5387 5383 5379 5374 5369 5365 5361 5357 5354 5351 5348 5344 5340 5337 5334 5330 5327 5324 5323 5322 5319 5316 5319 5320 5318 5317 5316 5315 5316 5319 5318 5315 5314 5313 5311 5308 5307 5309 5316 5324 5329 5332 5336 5340 5347 5353 5357 5362 5369 5373 5375 5377 5378 5380 5386 5392 5394 5401 5415 5421
5450 5448 5445 5443 5439 5435 5432 5430 5427 5424 5421 5419 5416 5414 5411 5408 5405 5402 5399 5396 5393 5390 5387 5384 5381 5377 5372 5368 5363 5357 5353 5349 5344 5340 5337 5335 5330 5325 5321 5318 5314 5311 5309 5307 5305 5302 5299 5301 5304 5302 5300 5300 5300 5298 5300 5302 5299 5297 5297 5293 5288 5288 5292 5296 5300 5306 5311 5316 5321 5327 5334 5339 5343 5348 5352 5356 5358 5360 5362 5368 5374 5379 5389 5399 5399
5440 5439 5438 5435 5431 5427 5424 5422 5419 5415 5413 5410 5407 5405 5402 5399 5396 5392 5389 5386 5383 5380 5377 5374 5370 5366 5361 5356 5351 5346 5341 5336 5331 5326 5322 5320 5316 5311 5306 5302 5297 5294 5293 5291 5289 5287 5284 5284 5287 5287 5284 5284 5284 5282 5281 5283 5283 5280 5279 5276 5271 5270 5274 5276 5276 5281 5289 5297 5304 5310 5315 5320 5324 5327 5331 5335 5338 5341 5344 5348 5356 5365 5374 5379 5378
5431 5430 5429 5426 5423 5419 5416 5413 5410 5407 5404 5401 5398 5395 5393 5390 5386 5382 5379 5376 5373 5370 5366 5363 5358 5354 5350 5345 5340 5335 5329 5323 5318 5313 5309 5306 5302 5297 5293 5288 5284 5280 5279 5278 5276 5273 5270 5270 5272 5272 5270 5269 5268 5267 5265 5265 5265 5263 5261 5260 5256 5255 5256 5256 5255 5260 5270 5278 5286 5292 5296 5300 5304 5307 5310 5314 5318 5322 5325 5329 5339 5349 5356 5359 5360
5423 5421 5419 5417 5414 5411 5408 5405 5402 5398 5395 5392 5389 5386 5384 5380 5376 5373 5370 5367 5364 5359 5356 5352 5347 5343 5339 5334 5329 5323 5318 5312 5306 5301 5296 5293 5289 5285 5281 5277 5273 5270 5268 5266 5264 5261 5259 5259 5259 5259 5258 5256 5253 5253 5252 5249 5248 5247 5245 5244 5242 5240 5240 5239 5237 5241 5251 5259 5267 5274 5279 5283 5286 5288 5291 5294 5298 5303 5307 5312 5322 5331 5337 5340 5342
5414 5411 5410 5407 5404 5402 5399 5396 5393 5389 5385 5383 5380 5377 5374 5371 5367 5364 5360 5357 5354 5350 5346 5341 5337 5333 5328 5323 5318 5313 5307 5302 5296 5290 5286 5282 5278 5275 5271 5268 5264 5260 5257 5255 5253 5250 5248 5247 5247 5246 5246 5243 5240 5239 5238 5236 5233 5232 5231 5230 5228 5226 5226 5225 5223 5225 5233 5241 5249 5256 5261 5265 5268 5271 5274 5276 5279 5285 5292 5298 5305 5312 5316 5320 5325
5405 5402 5400 5398 5395 5393 5390 5387 5384 5380 5376 5374 5371 5367 5364 5361 5358 5355 5352 5348 5344 5340 5336 5332 5327 5322 5318 5312 5308 5304 5298 5292 5287 5282 5277 5273 5269 5266 5263 5259 5255 5251 5248 5245 5243 5240 5237 5235 5234 5233 5231 5230 5227 5224 5223 5221 5219 5217 5217 5216 5215 5214 5213 5213 5211 5212 5217 5224 5230 5237 5242 5246 5250 5254 5256 5258 5263 5269 5276 5282 5287 5292 5297 5303 5309
5396 5394 5391 5389 5386 5384 5381 5378 5375 5371 5368 5366 5362 5358 5355 5352 5350 5347 5343 5340 5336 5331 5328 5324 5318 5314 5309 5304 5299 5294 5289 5284 5279 5274 5270 5266 5262 5258 5255 5251 5246 5242 5239 5236 5232 5229 5226 5223 5221 5220 5218 5217 5214 5211 5209 5206 5204 5203 5203 5202 5202 5202 5201 5201 5200 5201 5204 5207 5212 5217 5222 5227 5232 5237 5240 5243 5248 5255 5261 5267 5271 5276 5281 5287 5294
5388 5385 5383 5380 5378 5375 5372 5369 5366 5363 5360 5358 5355 5351 5347 5344 5342 5339 5335 5332 5328 5323 5319 5315 5311 5306 5301 5296 5291 5285 5280 5276 5272 5267 5263 5260 5256 5252 5248 5244 5238 5233 5230 5227 5223 5220 5216 5212 5210 5208 5206 5205 5203 5199 5195 5192 5191 5190 5191 5190 5189 5189 5189 5189 5190 5191 5191 5192 5196 5200 5206 5211 5216 5221 5226 5230 5235 5241 5248 5253 5258 5263 5267 5273 5279
5379 5377 5374 5372 5369 5367 5364 5361 5358 5355 5353 5351 5347 5343 5340 5337 5335 5331 5328 5324 5320 5316 5312 5308 5304 5299 5294 5289 5283 5277 5272 5268 5265 5262 5258 5254 5250 5245 5241 5238 5232 5226 5221 5217 5214 5210 5205 5201 5199 5197 5195 5194 5193 5189 5184 5180 5179 5178 5178 5178 5178 5177 5177 5178 5179 5180 5179 5180 5183 5187 5192 5198 5202 5207 5212 5217 5222 5228 5234 5240 5246 5251 5255 5259 5264
5371 5368 5366 5363 5361 5358 5356 5353 5350 5348 5346 5343 5340 5336 5333 5330 5327 5324 5320 5317 5313 5310 5306 5302 5297 5293 5288 5283 5276 5271 5266 5262 5259 5256 5254 5250 5245 5239 5233 5230 5226 5220 5214 5208 5202 5198 5193 5188 5187 5186 5183 5181 5181 5179 5175 5171 5169 5167 5166 5166 5167 5167 5166 5167 5168 5168 5167 5169 5173 5177 5181 5186 5189 5193 5198 5203 5208 5214 5220 5227 5233 5238 5241 5245 5249
5363 5361 5358 5355 5353 5350 5347 5345 5343 5341 5339 5336 5333 5329 5326 5324 5321 5317 5313 5309 5306 5303 5300 5296 5292 5287 5282 5276 5270 5264 5260 5256 5253 5250 5248 5245 5241 5235 5228 5222 5218 5213 5207 5199 5192 5187 5182 5177 5174 5173 5171 5169 5167 5166 5164 5161 5159 5158 5157 5156 5157 5157 5157 5157 5157 5157 5157 5161 5165 5168 5171 5175 5177 5180 5185 5190 5196 5201 5206 5212 5218 5222 5226 5231 5235